Location: Laverne
(36.7100°N, 99.8930°W)
Time: 13:11:40
(UTC-06:00)

Cosmos 1269 Rocket - Pass Details

Date: 19 October 2017
Orbit: 772 x 780 km, 74.1° (Epoch: 21 November)

Event Time Altitude Azimuth Distance (km) Brightness Sun altitude
Rises 07:09:49 0° 337° (NNW) 3,264 7.0 -9.0°
Reaches altitude 10° 07:12:14 10° 333° (NNW) 2,334 6.2 -8.5°
Maximum altitude 07:17:24 56° 256° (WSW) 921 4.1 -7.5°
Drops below altitude 10° 07:22:34 10° 179° (S) 2,323 6.6 -6.4°
Sets 07:24:58 0° 175° (S) 3,247 7.4 -6.0°
